Time,TemperatureF,DewpointF,PressureIn,WindDirection,WindDirectionDegrees,WindSpeedMPH,WindSpeedGustMPH,Humidity,HourlyPrecipIn,Conditions,Clouds,dailyrainin,SolarRadiationWatts/m^2,SoftwareType,DateUTC
2013-06-21 00:01:00,59.2,50.5,30.23,SE,142,3.6,5.0,73,0.00,FEW,OVC,0.00,0.0,WeatherDisplay:10.37,2013-06-21 04:01:00,
2013-06-21 00:06:00,59.4,50.4,30.23,SE,143,2.4,6.0,72,0.00,FEW,OVC,0.00,0.0,WeatherDisplay:10.37,2013-06-21 04:06:00,
2013-06-21 00:11:00,59.5,50.5,30.23,SE,145,2.0,5.8,72,0.00,FEW,OVC,0.00,0.0,WeatherDisplay:10.37,2013-06-21 04:11:00,
2013-06-21 00:16:00,59.6,50.2,30.23,SE,143,1.7,4.6,71,0.00,FEW,OVC,0.00,0.0,WeatherDisplay:10.37,2013-06-21 04:16:00,
2013-06-21 00:21:00,59.6,50.2,30.23,SE,145,1.9,9.2,71,0.00,FEW,OVC,0.00,0.0,WeatherDisplay:10.37,2013-06-21 04:21:00,
2013-06-21 00:26:00,59.6,50.2,30.23,SE,145,3.2,5.0,71,0.00,FEW,OVC,0.00,0.0,WeatherDisplay:10.37,2013-06-21 04:26:00,
2013-06-21 00:31:00,59.7,50.3,30.23,SE,146,1.2,4.6,71,0.00,FEW,OVC,0.00,0.0,WeatherDisplay:10.37,2013-06-21 04:31:00,
2013-06-21 00:36:00,59.7,50.3,30.23,SSE,147,1.6,8.1,71,0.00,FEW,OVC,0.00,0.0,WeatherDisplay:10.37,2013-06-21 04:36:00,
2013-06-21 00:41:00,59.6,50.2,30.23,SSE,148,2.7,5.0,71,0.00,FEW,OVC,0.00,0.0,WeatherDisplay:10.37,2013-06-21 04:41:00,
2013-06-21 00:46:00,59.6,50.2,30.23,SSE,148,3.3,6.0,71,0.00,FEW,OVC,0.00,0.0,WeatherDisplay:10.37,2013-06-21 04:46:00,
2013-06-21 00:51:00,59.6,50.2,30.23,SSE,150,2.3,5.8,71,0.00,FEW,OVC,0.00,0.0,WeatherDisplay:10.37,2013-06-21 04:51:00,
2013-06-21 00:56:00,59.5,50.1,30.23,SSE,150,2.6,5.0,71,0.00,FEW,OVC,0.00,0.0,WeatherDisplay:10.37,2013-06-21 04:56:00,
2013-06-21 01:01:00,59.5,50.1,30.23,SSE,149,2.7,10.4,71,0.00,FEW,OVC,0.00,0.0,WeatherDisplay:10.37,2013-06-21 05:01:00,
2013-06-21 01:06:00,59.5,49.7,30.23,SSE,148,1.9,6.0,70,0.00,FEW,OVC,0.00,0.0,WeatherDisplay:10.37,2013-06-21 05:06:00,
2013-06-21 01:11:00,59.5,49.7,30.23,SSE,148,3.3,9.0,70,0.00,FEW,OVC,0.00,0.0,WeatherDisplay:10.37,2013-06-21 05:11:00,
2013-06-21 01:16:00,59.4,49.6,30.23,SSE,148,5.4,11.5,70,0.00,FEW,OVC,0.00,0.0,WeatherDisplay:10.37,2013-06-21 05:16:00,
2013-06-21 01:21:00,59.5,49.7,30.23,SSE,150,6.1,10.4,70,0.00,FEW,OVC,0.00,0.0,WeatherDisplay:10.37,2013-06-21 05:21:00,
2013-06-21 01:26:00,59.6,49.8,30.23,SSE,150,3.4,8.1,70,0.00,FEW,OVC,0.00,0.0,WeatherDisplay:10.37,2013-06-21 05:26:00,
2013-06-21 01:31:00,59.6,49.4,30.23,SSE,148,3.9,8.1,69,0.00,FEW,OVC,0.00,0.0,WeatherDisplay:10.37,2013-06-21 05:31:00,
2013-06-21 01:36:00,59.6,49.4,30.23,SSE,148,3.8,9.2,69,0.00,FEW,OVC,0.00,0.0,WeatherDisplay:10.37,2013-06-21 05:36:00,
2013-06-21 01:41:00,59.6,49.4,30.23,SSE,148,2.0,5.8,69,0.00,FEW,OVC,0.00,0.0,WeatherDisplay:10.37,2013-06-21 05:41:00,
2013-06-21 01:46:00,59.5,49.3,30.23,SSE,150,2.8,8.0,69,0.00,FEW,OVC,0.00,0.0,WeatherDisplay:10.37,2013-06-21 05:46:00,
2013-06-21 01:51:00,59.4,49.2,30.23,SSE,150,3.1,11.5,69,0.00,FEW,OVC,0.00,0.0,WeatherDisplay:10.37,2013-06-21 05:51:00,
2013-06-21 01:56:00,59.4,49.2,30.23,SSE,150,1.1,8.1,69,0.00,FEW,OVC,0.00,0.0,WeatherDisplay:10.37,2013-06-21 05:56:00,
2013-06-21 02:01:00,59.3,49.1,30.23,SSE,151,2.6,5.8,69,0.00,FEW,OVC,0.00,0.0,WeatherDisplay:10.37,2013-06-21 06:01:00,
2013-06-21 02:06:00,59.3,49.1,30.23,SSE,151,2.1,8.1,69,0.00,FEW,OVC,0.00,0.0,WeatherDisplay:10.37,2013-06-21 06:06:00,
2013-06-21 02:11:00,59.3,49.1,30.23,SSE,151,4.5,9.2,69,0.00,FEW,OVC,0.00,0.0,WeatherDisplay:10.37,2013-06-21 06:11:00,
2013-06-21 02:16:00,59.2,49.0,30.23,SSE,151,3.0,8.1,69,0.00,FEW,OVC,0.00,0.0,WeatherDisplay:10.37,2013-06-21 06:16:00,
2013-06-21 02:21:00,59.2,49.0,30.23,SSE,147,1.9,6.0,69,0.00,FEW,OVC,0.00,0.0,WeatherDisplay:10.37,2013-06-21 06:21:00,
2013-06-21 02:26:00,59.1,48.9,30.22,SSE,148,1.5,9.2,69,0.00,FEW,OVC,0.00,0.0,WeatherDisplay:10.37,2013-06-21 06:26:00,
2013-06-21 02:31:00,58.9,48.7,30.23,SSE,148,2.7,6.0,69,0.00,FEW,OVC,0.00,0.0,WeatherDisplay:10.37,2013-06-21 06:31:00,
2013-06-21 02:36:00,58.8,48.6,30.23,SSE,148,1.3,4.0,69,0.00,FEW,OVC,0.00,0.0,WeatherDisplay:10.37,2013-06-21 06:36:00,
2013-06-21 02:41:00,58.7,48.6,30.23,SSE,148,3.1,6.0,69,0.00,FEW,OVC,0.00,0.0,WeatherDisplay:10.37,2013-06-21 06:41:00,
2013-06-21 02:46:00,58.6,48.8,30.23,SSE,148,1.4,4.0,70,0.00,FEW,OVC,0.00,0.0,WeatherDisplay:10.37,2013-06-21 06:46:00,
2013-06-21 02:51:00,58.4,48.7,30.22,SSE,148,0.0,1.2,70,0.00,FEW,OVC,0.00,0.0,WeatherDisplay:10.37,2013-06-21 06:51:00,
2013-06-21 02:56:00,58.1,48.7,30.22,SSE,148,0.0,0.0,71,0.00,FEW,OVC,0.00,0.0,WeatherDisplay:10.37,2013-06-21 06:56:00,
2013-06-21 03:01:00,57.9,48.6,30.22,SSE,148,0.0,2.3,71,0.00,FEW,OVC,0.00,0.0,WeatherDisplay:10.37,2013-06-21 07:01:00,
2013-06-21 03:06:00,57.7,48.7,30.22,SSE,148,0.0,3.5,72,0.00,FEW,OVC,0.00,0.0,WeatherDisplay:10.37,2013-06-21 07:06:00,
2013-06-21 03:11:00,57.4,48.4,30.22,SSE,148,1.0,3.5,72,0.00,FEW,OVC,0.00,0.0,WeatherDisplay:10.37,2013-06-21 07:11:00,
2013-06-21 03:16:00,57.1,48.5,30.22,SSE,148,0.9,3.5,73,0.00,FEW,OVC,0.00,0.0,WeatherDisplay:10.37,2013-06-21 07:16:00,
2013-06-21 03:21:00,56.9,48.3,30.22,SSE,148,0.1,1.0,73,0.00,FEW,OVC,0.00,0.0,WeatherDisplay:10.37,2013-06-21 07:21:00,
2013-06-21 03:26:00,56.6,48.4,30.23,SSE,148,0.0,1.2,74,0.00,FEW,OVC,0.00,0.0,WeatherDisplay:10.37,2013-06-21 07:26:00,
2013-06-21 03:31:00,56.3,48.1,30.23,SSE,148,0.0,0.0,74,0.00,FEW,OVC,0.00,0.0,WeatherDisplay:10.37,2013-06-21 07:31:00,
2013-06-21 03:36:00,55.9,48.1,30.23,SSE,148,0.0,1.2,75,0.00,FEW,OVC,0.00,0.0,WeatherDisplay:10.37,2013-06-21 07:36:00,
2013-06-21 03:41:00,55.6,48.2,30.23,SSE,148,0.0,0.0,76,0.00,FEW,OVC,0.00,0.0,WeatherDisplay:10.37,2013-06-21 07:41:00,
2013-06-21 03:46:00,55.3,47.9,30.23,SSE,148,0.0,0.0,76,0.00,FEW,OVC,0.00,0.0,WeatherDisplay:10.37,2013-06-21 07:46:00,
2013-06-21 03:51:00,55.1,47.7,30.23,SSE,148,0.0,0.0,76,0.00,FEW,OVC,0.00,0.0,WeatherDisplay:10.37,2013-06-21 07:51:00,
2013-06-21 03:56:00,54.8,47.7,30.23,SSE,148,0.0,0.0,77,0.00,FEW,OVC,0.00,0.0,WeatherDisplay:10.37,2013-06-21 07:56:00,
2013-06-21 04:01:00,54.5,47.8,30.23,SSE,148,0.0,1.2,78,0.00,FEW,OVC,0.00,0.0,WeatherDisplay:10.37,2013-06-21 08:01:00,
2013-06-21 04:06:00,54.3,47.9,30.23,SSE,148,0.0,0.0,79,0.00,FEW,OVC,0.00,0.0,WeatherDisplay:10.37,2013-06-21 08:06:00,
2013-06-21 04:11:00,54.1,47.7,30.23,SSE,148,0.0,0.0,79,0.00,FEW,OVC,0.00,0.0,WeatherDisplay:10.37,2013-06-21 08:11:00,
2013-06-21 04:16:00,53.9,47.9,30.24,SSE,148,0.0,1.2,80,0.00,FEW,OVC,0.00,0.0,WeatherDisplay:10.37,2013-06-21 08:16:00,
2013-06-21 04:21:00,53.6,47.6,30.23,SSE,148,0.0,0.0,80,0.00,FEW,OVC,0.00,0.0,WeatherDisplay:10.37,2013-06-21 08:21:00,
2013-06-21 04:26:00,53.4,47.7,30.23,SSE,148,0.0,0.0,81,0.00,FEW,OVC,0.00,0.0,WeatherDisplay:10.37,2013-06-21 08:26:00,
2013-06-21 04:31:00,53.2,47.8,30.23,SSE,148,0.0,0.0,82,0.00,FEW,OVC,0.00,0.0,WeatherDisplay:10.37,2013-06-21 08:31:00,
2013-06-21 04:36:00,52.8,47.5,30.23,SSE,148,0.0,0.0,82,0.00,FEW,OVC,0.00,0.0,WeatherDisplay:10.37,2013-06-21 08:36:00,
2013-06-21 04:41:00,52.5,47.2,30.23,SSE,148,0.0,0.0,82,0.00,FEW,OVC,0.00,0.0,WeatherDisplay:10.37,2013-06-21 08:41:00,
2013-06-21 04:46:00,52.3,47.3,30.23,SSE,148,0.0,0.0,83,0.00,FEW,OVC,0.00,0.0,WeatherDisplay:10.37,2013-06-21 08:46:00,
2013-06-21 04:51:00,52.2,47.2,30.23,SSE,148,0.0,0.0,83,0.00,FEW,OVC,0.00,0.0,WeatherDisplay:10.37,2013-06-21 08:51:00,
2013-06-21 04:56:00,51.9,46.9,30.24,SSE,148,0.0,0.0,83,0.00,FEW,OVC,0.00,0.0,WeatherDisplay:10.37,2013-06-21 08:56:00,
2013-06-21 05:01:00,51.6,46.6,30.24,SSE,148,0.0,0.0,83,0.00,FEW,OVC,0.00,0.0,WeatherDisplay:10.37,2013-06-21 09:01:00,
2013-06-21 05:06:00,51.3,46.6,30.24,SSE,148,0.0,0.0,84,0.00,FEW,OVC,0.00,0.0,WeatherDisplay:10.37,2013-06-21 09:06:00,
2013-06-21 05:11:00,51.1,46.4,30.25,SSE,148,0.0,0.0,84,0.00,FEW,OVC,0.00,0.0,WeatherDisplay:10.37,2013-06-21 09:11:00,
2013-06-21 05:16:00,50.9,46.6,30.24,SSE,148,0.0,0.0,85,0.00,FEW,OVC,0.00,0.0,WeatherDisplay:10.37,2013-06-21 09:16:00,
2013-06-21 05:21:00,50.8,46.5,30.25,SSE,148,0.0,0.0,85,0.00,FEW,OVC,0.00,0.0,WeatherDisplay:10.37,2013-06-21 09:21:00,
2013-06-21 05:26:00,50.6,46.3,30.25,SSE,148,0.0,0.0,85,0.00,FEW,OVC,0.00,0.0,WeatherDisplay:10.37,2013-06-21 09:26:00,
2013-06-21 05:31:00,50.4,46.1,30.25,SSE,148,0.0,0.0,85,0.00,FEW,OVC,0.00,0.0,WeatherDisplay:10.37,2013-06-21 09:31:00,
2013-06-21 05:36:00,50.3,46.0,30.25,SSE,148,0.0,0.0,85,0.00,FEW,OVC,0.00,0.0,WeatherDisplay:10.37,2013-06-21 09:36:00,
2013-06-21 05:41:00,50.1,46.1,30.25,SSE,148,0.0,0.0,86,0.00,FEW,OVC,0.00,5.0,WeatherDisplay:10.37,2013-06-21 09:41:00,
2013-06-21 05:46:00,50.0,46.0,30.25,SSE,148,0.0,0.0,86,0.00,FEW,OVC,0.00,7.0,WeatherDisplay:10.37,2013-06-21 09:46:00,
2013-06-21 05:51:00,49.8,45.8,30.25,SSE,148,0.0,0.0,86,0.00,FEW,OVC,0.00,9.0,WeatherDisplay:10.37,2013-06-21 09:51:00,
2013-06-21 05:56:00,49.7,45.7,30.25,SSE,148,0.0,0.0,86,0.00,FEW,OVC,0.00,12.0,WeatherDisplay:10.37,2013-06-21 09:56:00,
2013-06-21 06:01:00,49.6,45.9,30.25,SSE,148,0.0,1.2,87,0.00,FEW,OVC,0.00,16.0,WeatherDisplay:10.37,2013-06-21 10:01:00,
2013-06-21 06:06:00,49.6,45.9,30.25,SSE,148,0.0,0.0,87,0.00,FEW,OVC,0.00,23.0,WeatherDisplay:10.37,2013-06-21 10:06:00,
2013-06-21 06:11:00,49.6,46.2,30.25,SSE,148,0.0,0.0,88,0.00,FEW,OVC,0.00,32.0,WeatherDisplay:10.37,2013-06-21 10:11:00,
2013-06-21 06:16:00,49.7,46.3,30.25,SSE,148,0.0,0.0,88,0.00,FEW,OVC,0.00,33.0,WeatherDisplay:10.37,2013-06-21 10:16:00,
2013-06-21 06:21:00,50.0,46.9,30.25,SSE,148,0.0,1.2,89,0.00,FEW,OVC,0.00,28.0,WeatherDisplay:10.37,2013-06-21 10:21:00,
2013-06-21 06:26:00,50.3,47.2,30.25,SSE,148,0.0,1.2,89,0.00,FEW,OVC,0.00,53.0,WeatherDisplay:10.37,2013-06-21 10:26:00,
2013-06-21 06:31:00,50.6,47.5,30.25,SSE,148,0.0,0.0,89,0.00,FEW,OVC,0.00,56.0,WeatherDisplay:10.37,2013-06-21 10:31:00,
2013-06-21 06:36:00,50.9,47.8,30.25,SSE,148,0.0,1.2,89,0.00,FEW,OVC,0.00,84.0,WeatherDisplay:10.37,2013-06-21 10:36:00,
2013-06-21 06:41:00,51.3,48.5,30.25,SSE,148,0.0,2.3,90,0.00,FEW,OVC,0.00,91.0,WeatherDisplay:10.37,2013-06-21 10:41:00,
2013-06-21 06:46:00,51.8,48.7,30.25,SSE,148,0.0,1.2,89,0.00,FEW,OVC,0.00,105.0,WeatherDisplay:10.37,2013-06-21 10:46:00,
2013-06-21 06:51:00,52.3,49.2,30.25,SSE,148,0.0,1.2,89,0.00,FEW,OVC,0.00,128.0,WeatherDisplay:10.37,2013-06-21 10:51:00,
2013-06-21 06:56:00,52.6,49.4,30.25,SSE,148,0.1,1.0,89,0.00,FEW,OVC,0.00,141.0,WeatherDisplay:10.37,2013-06-21 10:56:00,
2013-06-21 07:01:00,53.2,50.3,30.25,SSE,148,0.0,0.0,90,0.00,FEW,OVC,0.00,156.0,WeatherDisplay:10.37,2013-06-21 11:01:00,
2013-06-21 07:06:00,54.0,50.8,30.26,SSE,148,0.0,1.2,89,0.00,FEW,OVC,0.00,172.0,WeatherDisplay:10.37,2013-06-21 11:06:00,
2013-06-21 07:11:00,54.8,51.3,30.26,SSE,148,0.0,1.2,88,0.00,FEW,OVC,0.00,186.0,WeatherDisplay:10.37,2013-06-21 11:11:00,
2013-06-21 07:16:00,55.6,51.5,30.25,SSE,148,0.0,2.3,86,0.00,FEW,OVC,0.00,206.0,WeatherDisplay:10.37,2013-06-21 11:16:00,
2013-06-21 07:21:00,56.2,51.7,30.24,SSE,148,0.1,3.5,85,0.00,FEW,OVC,0.00,218.0,WeatherDisplay:10.37,2013-06-21 11:21:00,
2013-06-21 07:26:00,56.9,52.1,30.25,SSE,148,0.5,3.5,84,0.00,FEW,OVC,0.00,234.0,WeatherDisplay:10.37,2013-06-21 11:26:00,
2013-06-21 07:31:00,57.6,52.5,30.25,SSE,148,0.3,1.2,83,0.00,FEW,OVC,0.00,246.0,WeatherDisplay:10.37,2013-06-21 11:31:00,
2013-06-21 07:36:00,58.3,52.5,30.25,SSE,148,0.0,2.3,81,0.00,FEW,OVC,0.00,260.0,WeatherDisplay:10.37,2013-06-21 11:36:00,
2013-06-21 07:41:00,59.1,52.9,30.25,SSE,148,0.1,2.3,80,0.00,FEW,OVC,0.00,271.0,WeatherDisplay:10.37,2013-06-21 11:41:00,
2013-06-21 07:46:00,59.9,52.7,30.26,SSE,148,1.1,8.1,77,0.00,FEW,OVC,0.00,290.0,WeatherDisplay:10.37,2013-06-21 11:46:00,
2013-06-21 07:51:00,60.6,53.0,30.25,SSE,148,0.1,3.5,76,0.00,FEW,OVC,0.00,304.0,WeatherDisplay:10.37,2013-06-21 11:51:00,
2013-06-21 07:56:00,61.2,53.6,30.26,SSE,148,0.5,3.0,76,0.00,FEW,OVC,0.00,316.0,WeatherDisplay:10.37,2013-06-21 11:56:00,
2013-06-21 08:01:00,61.9,53.1,30.25,SSE,148,0.3,3.5,73,0.00,FEW,OVC,0.00,332.0,WeatherDisplay:10.37,2013-06-21 12:01:00,
2013-06-21 08:06:00,62.4,53.3,30.25,SSE,148,2.5,3.5,72,0.00,FEW,OVC,0.00,346.0,WeatherDisplay:10.37,2013-06-21 12:06:00,
2013-06-21 08:11:00,63.0,53.4,30.26,SSE,148,0.1,3.5,71,0.00,FEW,OVC,0.00,366.0,WeatherDisplay:10.37,2013-06-21 12:11:00,
2013-06-21 08:16:00,63.6,53.6,30.26,SSE,148,0.0,1.2,70,0.00,FEW,OVC,0.00,378.0,WeatherDisplay:10.37,2013-06-21 12:16:00,
2013-06-21 08:21:00,64.3,53.5,30.26,SSE,148,0.1,1.2,68,0.00,FEW,OVC,0.00,392.0,WeatherDisplay:10.37,2013-06-21 12:21:00,
2013-06-21 08:26:00,65.0,53.8,30.26,SSE,148,0.1,1.2,67,0.00,FEW,OVC,0.00,404.0,WeatherDisplay:10.37,2013-06-21 12:26:00,
2013-06-21 08:31:00,65.7,54.0,30.26,SSE,148,1.3,3.5,66,0.00,FEW,OVC,0.00,418.0,WeatherDisplay:10.37,2013-06-21 12:31:00,
2013-06-21 08:36:00,66.5,55.2,30.26,SSE,148,0.0,1.2,67,0.00,FEW,OVC,0.00,436.0,WeatherDisplay:10.37,2013-06-21 12:36:00,
2013-06-21 08:41:00,67.4,54.4,30.26,SSE,148,0.2,1.2,63,0.00,FEW,OVC,0.00,448.0,WeatherDisplay:10.37,2013-06-21 12:41:00,
2013-06-21 08:46:00,68.0,54.0,30.26,SSE,148,0.1,1.2,61,0.00,FEW,OVC,0.00,464.0,WeatherDisplay:10.37,2013-06-21 12:46:00,
2013-06-21 08:51:00,68.6,54.2,30.26,SSE,148,0.3,2.3,60,0.00,FEW,OVC,0.00,478.0,WeatherDisplay:10.37,2013-06-21 12:51:00,
2013-06-21 08:56:00,69.0,54.1,30.27,SSE,148,0.0,0.0,59,0.00,FEW,OVC,0.00,490.0,WeatherDisplay:10.37,2013-06-21 12:56:00,
2013-06-21 09:01:00,70.0,54.5,30.27,SSE,148,0.0,1.2,58,0.00,FEW,OVC,0.00,506.0,WeatherDisplay:10.37,2013-06-21 13:01:00,
2013-06-21 09:06:00,70.5,54.0,30.27,SSE,148,0.0,1.2,56,0.00,FEW,OVC,0.00,522.0,WeatherDisplay:10.37,2013-06-21 13:06:00,
2013-06-21 09:11:00,71.1,53.6,30.27,SSE,148,0.7,2.3,54,0.00,FEW,OVC,0.00,534.0,WeatherDisplay:10.37,2013-06-21 13:11:00,
2013-06-21 09:16:00,71.7,54.7,30.27,SSE,148,0.0,0.0,55,0.00,FEW,OVC,0.00,548.0,WeatherDisplay:10.37,2013-06-21 13:16:00,
2013-06-21 09:21:00,72.3,54.7,30.27,SSE,148,0.5,3.5,54,0.00,FEW,OVC,0.00,559.0,WeatherDisplay:10.37,2013-06-21 13:21:00,
2013-06-21 09:26:00,72.6,54.5,30.27,SSE,148,0.0,1.2,53,0.00,FEW,OVC,0.00,575.0,WeatherDisplay:10.37,2013-06-21 13:26:00,
2013-06-21 09:31:00,73.0,54.9,30.27,SSE,148,0.1,1.2,53,0.00,FEW,OVC,0.00,587.0,WeatherDisplay:10.37,2013-06-21 13:31:00,
2013-06-21 09:36:00,73.3,54.6,30.27,SSE,148,0.2,3.5,52,0.00,FEW,OVC,0.00,598.0,WeatherDisplay:10.37,2013-06-21 13:36:00,
2013-06-21 09:41:00,73.6,54.9,30.26,SSE,148,0.3,2.0,52,0.00,FEW,OVC,0.00,613.0,WeatherDisplay:10.37,2013-06-21 13:41:00,
2013-06-21 09:46:00,73.8,55.6,30.26,SSE,148,0.2,1.2,53,0.00,FEW,OVC,0.00,626.0,WeatherDisplay:10.37,2013-06-21 13:46:00,
2013-06-21 09:51:00,74.3,54.5,30.26,SSE,148,1.0,3.5,50,0.00,FEW,OVC,0.00,638.0,WeatherDisplay:10.37,2013-06-21 13:51:00,
2013-06-21 09:56:00,74.7,55.9,30.26,SSE,148,0.0,3.5,52,0.00,FEW,OVC,0.00,647.0,WeatherDisplay:10.37,2013-06-21 13:56:00,
2013-06-21 10:01:00,75.1,55.7,30.26,SSE,148,0.6,2.0,51,0.00,FEW,OVC,0.00,654.0,WeatherDisplay:10.37,2013-06-21 14:01:00,
2013-06-21 10:06:00,75.0,55.1,30.27,SSE,148,0.0,1.2,50,0.00,FEW,OVC,0.00,663.0,WeatherDisplay:10.37,2013-06-21 14:06:00,
2013-06-21 10:11:00,75.1,55.7,30.26,SSE,148,2.5,5.0,51,0.00,FEW,OVC,0.00,624.0,WeatherDisplay:10.37,2013-06-21 14:11:00,
2013-06-21 10:16:00,74.7,54.8,30.26,SSE,148,0.7,3.5,50,0.00,FEW,OVC,0.00,696.0,WeatherDisplay:10.37,2013-06-21 14:16:00,
2013-06-21 10:21:00,74.8,54.4,30.26,SSE,148,0.9,3.5,49,0.00,FEW,OVC,0.00,705.0,WeatherDisplay:10.37,2013-06-21 14:21:00,
2013-06-21 10:26:00,75.2,54.2,30.26,SSE,148,0.0,1.2,48,0.00,FEW,OVC,0.00,703.0,WeatherDisplay:10.37,2013-06-21 14:26:00,
2013-06-21 10:31:00,75.7,55.7,30.26,SSE,148,0.2,1.2,50,0.00,BKN,OVC,0.00,701.0,WeatherDisplay:10.37,2013-06-21 14:31:00,
2013-06-21 10:36:00,76.3,55.7,30.26,SSE,148,2.4,4.0,49,0.00,BKN,OVC,0.00,714.0,WeatherDisplay:10.37,2013-06-21 14:36:00,
2013-06-21 10:41:00,76.5,54.8,30.26,SSE,148,3.3,5.0,47,0.00,BKN,OVC,0.00,731.0,WeatherDisplay:10.37,2013-06-21 14:41:00,
2013-06-21 10:46:00,76.3,55.7,30.26,SSE,148,0.2,3.5,49,0.00,BKN,OVC,0.00,751.0,WeatherDisplay:10.37,2013-06-21 14:46:00,
2013-06-21 10:51:00,76.4,54.7,30.26,SSE,148,1.9,3.5,47,0.00,BKN,OVC,0.00,766.0,WeatherDisplay:10.37,2013-06-21 14:51:00,
2013-06-21 10:56:00,76.5,54.8,30.26,SSE,148,0.1,1.2,47,0.00,BKN,OVC,0.00,777.0,WeatherDisplay:10.37,2013-06-21 14:56:00,
2013-06-21 11:01:00,77.2,54.2,30.25,SSE,148,0.4,3.5,45,0.00,BKN,OVC,0.00,791.0,WeatherDisplay:10.37,2013-06-21 15:01:00,
2013-06-21 11:07:00,77.5,53.9,30.25,SE,146,2.1,5.8,44,0.00,BKN,OVC,0.00,800.0,WeatherDisplay:10.37,2013-06-21 15:07:00,
2013-06-21 11:12:00,77.6,54.6,30.26,SE,146,0.7,3.0,45,0.00,BKN,OVC,0.00,809.0,WeatherDisplay:10.37,2013-06-21 15:12:00,
2013-06-21 11:17:00,77.8,54.1,30.25,SE,146,0.1,1.2,44,0.00,BKN,OVC,0.00,819.0,WeatherDisplay:10.37,2013-06-21 15:17:00,
2013-06-21 11:22:00,77.8,54.8,30.25,SE,146,1.9,4.0,45,0.00,SCT,OVC,0.00,831.0,WeatherDisplay:10.37,2013-06-21 15:22:00,
2013-06-21 11:27:00,78.0,55.5,30.25,SSE,147,2.1,4.0,46,0.00,SCT,OVC,0.00,837.0,WeatherDisplay:10.37,2013-06-21 15:27:00,
2013-06-21 11:32:00,78.5,55.4,30.25,SSE,148,2.7,4.0,45,0.00,SCT,OVC,0.00,840.0,WeatherDisplay:10.37,2013-06-21 15:32:00,
2013-06-21 11:37:00,78.5,55.4,30.25,SE,138,1.4,4.0,45,0.00,SCT,OVC,0.00,849.0,WeatherDisplay:10.37,2013-06-21 15:37:00,
2013-06-21 11:42:00,79.0,55.8,30.25,SE,138,0.9,3.5,45,0.00,SCT,OVC,0.00,856.0,WeatherDisplay:10.37,2013-06-21 15:42:00,
2013-06-21 11:47:00,79.0,54.6,30.24,SE,136,0.7,5.0,43,0.00,SCT,OVC,0.00,860.0,WeatherDisplay:10.37,2013-06-21 15:47:00,
2013-06-21 11:52:00,79.2,55.4,30.24,SE,140,0.0,4.6,44,0.00,SCT,OVC,0.00,863.0,WeatherDisplay:10.37,2013-06-21 15:52:00,
2013-06-21 11:57:00,79.7,55.9,30.25,SE,140,0.7,2.0,44,0.00,SCT,OVC,0.00,868.0,WeatherDisplay:10.37,2013-06-21 15:57:00,
2013-06-21 12:02:00,79.7,54.6,30.24,SE,126,0.3,3.5,42,0.00,FEW,OVC,0.00,877.0,WeatherDisplay:10.37,2013-06-21 16:02:00,
2013-06-21 12:08:00,80.0,55.5,30.24,SE,126,0.3,2.3,43,0.00,FEW,OVC,0.00,884.0,WeatherDisplay:10.37,2013-06-21 16:08:00,
2013-06-21 12:13:00,80.6,54.7,30.24,SE,126,0.1,3.5,41,0.00,FEW,OVC,0.00,888.0,WeatherDisplay:10.37,2013-06-21 16:13:00,
2013-06-21 12:18:00,80.7,55.5,30.24,ESE,116,1.7,8.1,42,0.00,FEW,OVC,0.00,895.0,WeatherDisplay:10.37,2013-06-21 16:18:00,
2013-06-21 12:23:00,80.2,55.0,30.23,ESE,116,3.3,5.8,42,0.00,FEW,OVC,0.00,895.0,WeatherDisplay:10.37,2013-06-21 16:23:00,
2013-06-21 12:28:00,80.0,56.1,30.24,ESE,116,0.4,2.0,44,0.00,FEW,OVC,0.00,900.0,WeatherDisplay:10.37,2013-06-21 16:28:00,
2013-06-21 12:33:00,80.5,55.9,30.24,ESE,113,3.5,8.1,43,0.00,FEW,OVC,0.00,902.0,WeatherDisplay:10.37,2013-06-21 16:33:00,
2013-06-21 12:38:00,80.3,55.8,30.24,ESE,109,4.4,7.0,43,0.00,FEW,OVC,0.00,904.0,WeatherDisplay:10.37,2013-06-21 16:38:00,
2013-06-21 12:43:00,80.1,56.2,30.24,ESE,103,2.1,6.9,44,0.00,FEW,OVC,0.00,907.0,WeatherDisplay:10.37,2013-06-21 16:43:00,
2013-06-21 12:48:00,80.5,56.6,30.24,ESE,103,0.4,2.0,44,0.00,FEW,OVC,0.00,909.0,WeatherDisplay:10.37,2013-06-21 16:48:00,
2013-06-21 12:53:00,80.9,55.7,30.24,East,98,3.3,8.0,42,0.00,FEW,OVC,0.00,909.0,WeatherDisplay:10.37,2013-06-21 16:53:00,
2013-06-21 12:58:00,81.0,55.7,30.23,East,96,0.7,5.8,42,0.00,FEW,OVC,0.00,912.0,WeatherDisplay:10.37,2013-06-21 16:58:00,
2013-06-21 13:03:00,81.2,57.2,30.24,East,95,2.8,7.0,44,0.00,FEW,OVC,0.00,912.0,WeatherDisplay:10.37,2013-06-21 17:03:00,
2013-06-21 13:08:00,81.1,55.8,30.23,East,95,0.2,5.8,42,0.00,FEW,OVC,0.00,900.0,WeatherDisplay:10.37,2013-06-21 17:08:00,
2013-06-21 13:13:00,81.4,56.1,30.23,East,95,0.7,3.0,42,0.00,FEW,OVC,0.00,916.0,WeatherDisplay:10.37,2013-06-21 17:13:00,
2013-06-21 13:18:00,82.2,58.1,30.24,East,101,1.6,6.0,44,0.00,FEW,OVC,0.00,912.0,WeatherDisplay:10.37,2013-06-21 17:18:00,
2013-06-21 13:23:00,82.7,56.6,30.23,SSE,166,4.6,6.0,41,0.00,SCT,OVC,0.00,916.0,WeatherDisplay:10.37,2013-06-21 17:23:00,
2013-06-21 13:29:00,83.0,57.5,30.23,SSE,166,1.8,3.5,42,0.00,SCT,OVC,0.00,916.0,WeatherDisplay:10.37,2013-06-21 17:29:00,
2013-06-21 13:35:00,83.3,56.5,30.23,SSE,147,3.5,6.0,40,0.00,SCT,OVC,0.00,923.0,WeatherDisplay:10.37,2013-06-21 17:35:00,
2013-06-21 13:41:00,82.6,55.8,30.23,SE,134,4.3,5.0,40,0.00,SCT,OVC,0.00,918.0,WeatherDisplay:10.37,2013-06-21 17:41:00,
2013-06-21 13:46:00,82.1,54.7,30.23,SE,132,3.0,9.2,39,0.00,SCT,OVC,0.00,786.0,WeatherDisplay:10.37,2013-06-21 17:46:00,
2013-06-21 13:47:00,82.1,55.4,30.23,SE,130,2.8,9.2,40,0.00,SCT,OVC,0.00,828.0,WeatherDisplay:10.37,2013-06-21 17:47:00,
2013-06-21 13:52:00,82.1,54.7,30.23,ESE,120,3.9,7.0,39,0.00,SCT,OVC,0.00,851.0,WeatherDisplay:10.37,2013-06-21 17:52:00,
2013-06-21 13:58:00,81.8,55.8,30.22,ESE,115,2.7,6.9,41,0.00,SCT,OVC,0.00,895.0,WeatherDisplay:10.37,2013-06-21 17:58:00,
2013-06-21 14:03:00,81.9,55.9,30.22,ESE,114,0.4,6.9,41,0.00,SCT,OVC,0.00,896.0,WeatherDisplay:10.37,2013-06-21 18:03:00,
2013-06-21 14:08:00,82.3,54.9,30.22,ESE,114,0.0,3.5,39,0.00,SCT,OVC,0.00,840.0,WeatherDisplay:10.37,2013-06-21 18:08:00,
2013-06-21 14:13:00,82.9,56.1,30.21,ESE,105,7.5,11.5,40,0.00,SCT,OVC,0.00,844.0,WeatherDisplay:10.37,2013-06-21 18:13:00,
2013-06-21 14:18:00,83.0,56.9,30.22,ESE,123,3.3,8.1,41,0.00,SCT,OVC,0.00,863.0,WeatherDisplay:10.37,2013-06-21 18:18:00,
2013-06-21 14:23:00,83.4,60.4,30.22,SSW,199,2.9,8.1,46,0.00,BKN,OVC,0.00,842.0,WeatherDisplay:10.37,2013-06-21 18:23:00,
2013-06-21 14:24:00,83.5,58.6,30.22,SSW,207,6.6,9.0,43,0.00,BKN,OVC,0.00,863.0,WeatherDisplay:10.37,2013-06-21 18:24:00,
2013-06-21 14:29:00,83.6,60.0,30.21,WSW,242,3.7,10.4,45,0.00,BKN,OVC,0.00,856.0,WeatherDisplay:10.37,2013-06-21 18:29:00,
2013-06-21 14:34:00,83.8,59.6,30.22,WSW,243,1.6,4.6,44,0.00,BKN,OVC,0.00,846.0,WeatherDisplay:10.37,2013-06-21 18:34:00,
2013-06-21 14:39:00,84.1,59.2,30.22,WSW,243,3.1,5.8,43,0.00,BKN,OVC,0.00,847.0,WeatherDisplay:10.37,2013-06-21 18:39:00,
2013-06-21 14:45:00,84.0,57.1,30.22,WSW,248,2.6,6.9,40,0.00,BKN,OVC,0.00,791.0,WeatherDisplay:10.37,2013-06-21 18:45:00,
2013-06-21 14:46:00,84.0,57.1,30.22,WSW,248,2.6,6.9,40,0.00,BKN,OVC,0.00,791.0,WeatherDisplay:10.37,2013-06-21 18:46:00,
2013-06-21 14:51:00,83.6,56.0,30.21,WSW,246,1.4,3.5,39,0.00,BKN,OVC,0.00,795.0,WeatherDisplay:10.37,2013-06-21 18:51:00,
2013-06-21 14:56:00,83.9,58.3,30.21,WNW,290,3.1,10.0,42,0.00,BKN,OVC,0.00,828.0,WeatherDisplay:10.37,2013-06-21 18:56:00,
2013-06-21 15:01:00,84.3,57.3,30.21,WNW,290,2.7,5.0,40,0.00,BKN,OVC,0.00,824.0,WeatherDisplay:10.37,2013-06-21 19:01:00,
2013-06-21 15:06:00,84.0,57.8,30.21,WNW,291,2.5,5.0,41,0.00,BKN,OVC,0.00,870.0,WeatherDisplay:10.37,2013-06-21 19:06:00,
2013-06-21 15:11:00,84.3,59.4,30.22,WNW,299,3.9,11.5,43,0.00,BKN,OVC,0.00,872.0,WeatherDisplay:10.37,2013-06-21 19:11:00,
2013-06-21 15:17:00,84.3,58.7,30.21,West,279,3.5,8.1,42,0.00,BKN,OVC,0.00,816.0,WeatherDisplay:10.37,2013-06-21 19:17:00,
2013-06-21 15:20:00,84.2,58.6,30.21,West,267,3.9,8.1,42,0.00,BKN,OVC,0.00,812.0,WeatherDisplay:10.37,2013-06-21 19:20:00,
2013-06-21 15:25:00,84.0,57.8,30.21,WNW,292,3.8,8.0,41,0.00,BKN,OVC,0.00,779.0,WeatherDisplay:10.37,2013-06-21 19:25:00,
2013-06-21 15:30:00,83.8,58.9,30.21,WSW,256,5.3,9.2,43,0.00,BKN,OVC,0.00,788.0,WeatherDisplay:10.37,2013-06-21 19:30:00,
2013-06-21 15:35:00,83.8,58.9,30.21,WNW,287,0.4,4.0,43,0.00,BKN,OVC,0.00,761.0,WeatherDisplay:10.37,2013-06-21 19:35:00,
2013-06-21 15:40:00,83.9,58.3,30.21,West,261,2.5,9.2,42,0.00,BKN,OVC,0.00,754.0,WeatherDisplay:10.37,2013-06-21 19:40:00,
2013-06-21 15:42:00,83.9,60.3,30.21,West,261,2.9,6.0,45,0.00,BKN,OVC,0.00,735.0,WeatherDisplay:10.37,2013-06-21 19:42:00,
2013-06-21 15:43:00,83.9,59.0,30.21,WSW,256,2.9,9.0,43,0.00,BKN,OVC,0.00,738.0,WeatherDisplay:10.37,2013-06-21 19:43:00,
2013-06-21 15:48:00,84.1,59.2,30.21,WSW,254,4.5,9.2,43,0.00,BKN,OVC,0.00,729.0,WeatherDisplay:10.37,2013-06-21 19:48:00,
2013-06-21 15:53:00,83.9,59.0,30.21,West,260,1.6,6.9,43,0.00,BKN,OVC,0.00,682.0,WeatherDisplay:10.37,2013-06-21 19:53:00,
2013-06-21 15:58:00,83.7,58.8,30.21,WSW,251,1.2,11.5,43,0.00,BKN,OVC,0.00,731.0,WeatherDisplay:10.37,2013-06-21 19:58:00,
2013-06-21 16:03:00,83.3,57.8,30.21,WSW,252,5.6,10.0,42,0.00,BKN,OVC,0.00,707.0,WeatherDisplay:10.37,2013-06-21 20:03:00,
2013-06-21 16:04:00,83.2,57.7,30.21,West,261,4.5,10.4,42,0.00,BKN,OVC,0.00,677.0,WeatherDisplay:10.37,2013-06-21 20:04:00,
2013-06-21 16:09:00,82.9,58.7,30.21,WSW,258,1.4,8.1,44,0.00,BKN,OVC,0.00,613.0,WeatherDisplay:10.37,2013-06-21 20:09:00,
2013-06-21 16:11:00,82.7,57.3,30.20,WSW,255,5.3,9.2,42,0.00,BKN,OVC,0.00,647.0,WeatherDisplay:10.37,2013-06-21 20:11:00,
2013-06-21 16:13:00,82.6,59.1,30.20,WSW,255,2.4,7.0,45,0.00,BKN,OVC,0.00,594.0,WeatherDisplay:10.37,2013-06-21 20:13:00,
2013-06-21 16:18:00,82.5,59.0,30.21,WSW,252,5.1,9.2,45,0.00,BKN,OVC,0.00,613.0,WeatherDisplay:10.37,2013-06-21 20:18:00,
2013-06-21 16:23:00,82.4,57.7,30.20,WSW,253,5.6,10.4,43,0.00,BKN,OVC,0.00,610.0,WeatherDisplay:10.37,2013-06-21 20:23:00,
2013-06-21 16:28:00,82.0,56.6,30.20,West,259,3.8,10.4,42,0.00,BKN,OVC,0.00,506.0,WeatherDisplay:10.37,2013-06-21 20:28:00,
2013-06-21 16:33:00,81.7,57.0,30.20,WSW,252,5.0,9.2,43,0.00,BKN,OVC,0.00,647.0,WeatherDisplay:10.37,2013-06-21 20:33:00,
2013-06-21 16:38:00,81.6,59.4,30.20,WSW,252,1.1,4.6,47,0.00,BKN,OVC,0.00,642.0,WeatherDisplay:10.37,2013-06-21 20:38:00,
2013-06-21 16:45:00,81.8,58.4,30.20,WSW,257,2.9,8.1,45,0.00,BKN,OVC,0.00,663.0,WeatherDisplay:10.37,2013-06-21 20:45:00,
2013-06-21 16:50:00,81.8,59.0,30.20,WSW,254,2.5,9.2,46,0.00,BKN,OVC,0.00,613.0,WeatherDisplay:10.37,2013-06-21 20:50:00,
2013-06-21 16:55:00,81.8,58.4,30.20,WSW,258,1.3,8.1,45,0.00,BKN,OVC,0.00,543.0,WeatherDisplay:10.37,2013-06-21 20:55:00,
2013-06-21 17:00:00,81.7,57.0,30.20,West,259,3.4,8.1,43,0.00,BKN,OVC,0.00,457.0,WeatherDisplay:10.37,2013-06-21 21:00:00,
2013-06-21 17:04:00,81.5,58.7,30.20,West,261,2.6,8.0,46,0.00,BKN,OVC,0.00,367.0,WeatherDisplay:10.37,2013-06-21 21:04:00,
2013-06-21 17:09:00,81.3,57.3,30.20,WSW,257,1.8,10.4,44,0.00,BKN,OVC,0.00,559.0,WeatherDisplay:10.37,2013-06-21 21:09:00,
2013-06-21 17:14:00,81.1,57.1,30.20,WSW,257,2.8,8.1,44,0.00,BKN,OVC,0.00,343.0,WeatherDisplay:10.37,2013-06-21 21:14:00,
2013-06-21 17:19:00,80.8,56.2,30.19,WSW,248,4.8,9.2,43,0.00,BKN,OVC,0.00,534.0,WeatherDisplay:10.37,2013-06-21 21:19:00,
2013-06-21 17:24:00,80.4,57.1,30.19,WSW,247,3.2,9.2,45,0.00,BKN,OVC,0.00,501.0,WeatherDisplay:10.37,2013-06-21 21:24:00,
2013-06-21 17:29:00,80.1,57.5,30.19,WSW,251,3.6,9.2,46,0.00,BKN,OVC,0.00,413.0,WeatherDisplay:10.37,2013-06-21 21:29:00,
2013-06-21 17:34:00,79.8,57.2,30.19,WSW,250,4.4,9.2,46,0.00,BKN,OVC,0.00,338.0,WeatherDisplay:10.37,2013-06-21 21:34:00,
2013-06-21 17:39:00,79.6,57.0,30.19,WSW,250,1.8,6.9,46,0.00,BKN,OVC,0.00,429.0,WeatherDisplay:10.37,2013-06-21 21:39:00,
2013-06-21 17:44:00,79.6,57.0,30.19,WSW,250,1.9,5.0,46,0.00,BKN,OVC,0.00,367.0,WeatherDisplay:10.37,2013-06-21 21:44:00,
2013-06-21 17:49:00,79.6,55.8,30.19,WSW,256,0.8,8.1,44,0.00,BKN,OVC,0.00,315.0,WeatherDisplay:10.37,2013-06-21 21:49:00,
2013-06-21 17:54:00,79.7,57.1,30.18,WSW,256,0.5,3.5,46,0.00,BKN,OVC,0.00,392.0,WeatherDisplay:10.37,2013-06-21 21:54:00,
2013-06-21 17:59:00,79.8,55.3,30.18,WSW,257,1.3,4.0,43,0.00,BKN,OVC,0.00,248.0,WeatherDisplay:10.37,2013-06-21 21:59:00,
2013-06-21 18:04:00,79.9,56.0,30.19,WSW,256,1.3,4.0,44,0.00,BKN,OVC,0.00,471.0,WeatherDisplay:10.37,2013-06-21 22:04:00,
2013-06-21 18:09:00,80.0,54.8,30.19,WSW,257,2.3,5.0,42,0.00,BKN,OVC,0.00,232.0,WeatherDisplay:10.37,2013-06-21 22:09:00,
2013-06-21 18:14:00,80.1,55.6,30.19,WSW,257,0.1,3.5,43,0.00,BKN,OVC,0.00,243.0,WeatherDisplay:10.37,2013-06-21 22:14:00,
2013-06-21 18:19:00,80.1,54.3,30.19,WSW,257,0.6,3.5,41,0.00,BKN,OVC,0.00,267.0,WeatherDisplay:10.37,2013-06-21 22:19:00,
2013-06-21 18:24:00,80.0,54.2,30.19,WSW,257,0.1,1.2,41,0.00,BKN,OVC,0.00,297.0,WeatherDisplay:10.37,2013-06-21 22:24:00,
2013-06-21 18:29:00,80.1,54.3,30.19,WSW,257,2.6,5.0,41,0.00,BKN,OVC,0.00,464.0,WeatherDisplay:10.37,2013-06-21 22:29:00,
2013-06-21 18:34:00,80.2,54.4,30.19,WSW,257,0.3,3.5,41,0.00,BKN,OVC,0.00,418.0,WeatherDisplay:10.37,2013-06-21 22:34:00,
2013-06-21 18:39:00,80.4,55.2,30.19,WSW,257,0.7,2.3,42,0.00,BKN,OVC,0.00,376.0,WeatherDisplay:10.37,2013-06-21 22:39:00,
2013-06-21 18:44:00,80.6,55.4,30.19,WSW,257,0.9,3.5,42,0.00,BKN,OVC,0.00,343.0,WeatherDisplay:10.37,2013-06-21 22:44:00,
2013-06-21 18:49:00,80.8,56.2,30.19,WSW,257,0.1,2.3,43,0.00,BKN,OVC,0.00,309.0,WeatherDisplay:10.37,2013-06-21 22:49:00,
2013-06-21 18:54:00,80.9,55.7,30.19,WSW,257,0.9,3.5,42,0.00,BKN,OVC,0.00,139.0,WeatherDisplay:10.37,2013-06-21 22:54:00,
2013-06-21 18:59:00,80.8,56.2,30.19,WSW,257,1.0,3.5,43,0.00,BKN,OVC,0.00,167.0,WeatherDisplay:10.37,2013-06-21 22:59:00,
2013-06-21 19:04:00,80.6,56.0,30.19,WSW,257,0.0,3.5,43,0.00,BKN,OVC,0.00,88.0,WeatherDisplay:10.37,2013-06-21 23:04:00,
2013-06-21 19:09:00,80.4,55.9,30.19,WSW,257,0.0,1.2,43,0.00,BKN,OVC,0.00,151.0,WeatherDisplay:10.37,2013-06-21 23:09:00,
2013-06-21 19:14:00,80.1,54.9,30.18,WSW,257,0.2,1.2,42,0.00,BKN,OVC,0.00,130.0,WeatherDisplay:10.37,2013-06-21 23:14:00,
2013-06-21 19:19:00,80.0,56.1,30.18,WSW,257,0.1,1.0,44,0.00,BKN,OVC,0.00,120.0,WeatherDisplay:10.37,2013-06-21 23:19:00,
2013-06-21 19:24:00,79.7,55.9,30.18,WSW,257,0.1,1.2,44,0.00,BKN,OVC,0.00,121.0,WeatherDisplay:10.37,2013-06-21 23:24:00,
2013-06-21 19:29:00,79.6,56.4,30.18,WSW,257,0.2,1.2,45,0.00,BKN,OVC,0.00,128.0,WeatherDisplay:10.37,2013-06-21 23:29:00,
2013-06-21 19:34:00,79.4,56.2,30.18,WSW,257,0.0,0.0,45,0.00,BKN,OVC,0.00,91.0,WeatherDisplay:10.37,2013-06-21 23:34:00,
2013-06-21 19:39:00,79.3,56.1,30.17,WSW,257,0.0,0.0,45,0.00,BKN,OVC,0.00,77.0,WeatherDisplay:10.37,2013-06-21 23:39:00,
2013-06-21 19:44:00,79.2,56.0,30.17,WSW,257,0.0,1.2,45,0.00,BKN,OVC,0.00,84.0,WeatherDisplay:10.37,2013-06-21 23:44:00,
2013-06-21 19:49:00,79.0,55.8,30.18,WSW,257,0.0,0.0,45,0.00,BKN,OVC,0.00,37.0,WeatherDisplay:10.37,2013-06-21 23:49:00,
2013-06-21 19:54:00,78.9,57.0,30.18,WSW,257,0.0,0.0,47,0.00,BKN,OVC,0.00,32.0,WeatherDisplay:10.37,2013-06-21 23:54:00,
2013-06-21 19:59:00,78.6,56.7,30.18,WSW,257,0.0,0.0,47,0.00,BKN,OVC,0.00,32.0,WeatherDisplay:10.37,2013-06-21 23:59:00,
2013-06-21 20:04:00,78.3,57.0,30.18,WSW,257,0.0,0.0,48,0.00,BKN,OVC,0.00,44.0,WeatherDisplay:10.37,2013-06-22 00:04:00,
2013-06-21 20:09:00,77.7,57.6,30.18,WSW,257,0.0,0.0,50,0.00,BKN,OVC,0.00,67.0,WeatherDisplay:10.37,2013-06-22 00:09:00,
2013-06-21 20:14:00,77.2,58.2,30.17,WSW,257,0.0,0.0,52,0.00,BKN,OVC,0.00,51.0,WeatherDisplay:10.37,2013-06-22 00:14:00,
2013-06-21 20:20:00,76.9,59.5,30.18,WSW,257,0.0,0.0,55,0.00,BKN,OVC,0.00,47.0,WeatherDisplay:10.37,2013-06-22 00:20:00,
2013-06-21 20:25:00,76.5,60.1,30.17,WSW,257,0.0,0.0,57,0.00,BKN,OVC,0.00,35.0,WeatherDisplay:10.37,2013-06-22 00:25:00,
2013-06-21 20:30:00,76.3,59.9,30.17,WSW,257,0.0,0.0,57,0.00,BKN,OVC,0.00,30.0,WeatherDisplay:10.37,2013-06-22 00:30:00,
2013-06-21 20:35:00,75.9,59.6,30.17,WSW,257,0.0,0.0,57,0.00,BKN,OVC,0.00,23.0,WeatherDisplay:10.37,2013-06-22 00:35:00,
2013-06-21 20:40:00,75.5,59.7,30.17,WSW,257,0.0,0.0,58,0.00,BKN,OVC,0.00,19.0,WeatherDisplay:10.37,2013-06-22 00:40:00,
2013-06-21 20:45:00,75.0,59.2,30.17,WSW,257,0.0,0.0,58,0.00,BKN,OVC,0.00,16.0,WeatherDisplay:10.37,2013-06-22 00:45:00,
2013-06-21 20:50:00,74.5,59.2,30.18,WSW,257,0.0,0.0,59,0.00,BKN,OVC,0.00,14.0,WeatherDisplay:10.37,2013-06-22 00:50:00,
2013-06-21 20:55:00,74.0,59.2,30.18,WSW,257,0.0,0.0,60,0.00,BKN,OVC,0.00,9.0,WeatherDisplay:10.37,2013-06-22 00:55:00,
2013-06-21 21:00:00,73.5,59.2,30.17,WSW,257,0.0,0.0,61,0.00,BKN,OVC,0.00,0.0,WeatherDisplay:10.37,2013-06-22 01:00:00,
2013-06-21 21:05:00,72.9,59.1,30.17,WSW,257,0.0,0.0,62,0.00,BKN,OVC,0.00,0.0,WeatherDisplay:10.37,2013-06-22 01:05:00,
2013-06-21 21:10:00,72.4,58.6,30.17,WSW,257,0.0,0.0,62,0.00,BKN,OVC,0.00,0.0,WeatherDisplay:10.37,2013-06-22 01:10:00,
2013-06-21 21:15:00,71.8,58.1,30.17,WSW,257,0.0,0.0,62,0.00,BKN,OVC,0.00,0.0,WeatherDisplay:10.37,2013-06-22 01:15:00,
2013-06-21 21:20:00,71.1,58.3,30.17,WSW,257,0.0,0.0,64,0.00,BKN,OVC,0.00,0.0,WeatherDisplay:10.37,2013-06-22 01:20:00,
2013-06-21 21:25:00,70.6,58.3,30.17,WSW,257,0.0,0.0,65,0.00,BKN,OVC,0.00,0.0,WeatherDisplay:10.37,2013-06-22 01:25:00,
2013-06-21 21:30:00,70.0,58.1,30.17,WSW,257,0.0,0.0,66,0.00,BKN,OVC,0.00,0.0,WeatherDisplay:10.37,2013-06-22 01:30:00,
2013-06-21 21:35:00,69.5,57.6,30.18,WSW,257,0.0,0.0,66,0.00,BKN,OVC,0.00,0.0,WeatherDisplay:10.37,2013-06-22 01:35:00,
2013-06-21 21:40:00,68.9,57.5,30.17,WSW,257,0.0,0.0,67,0.00,BKN,OVC,0.00,0.0,WeatherDisplay:10.37,2013-06-22 01:40:00,
2013-06-21 21:45:00,68.0,57.8,30.17,WSW,257,0.0,0.0,70,0.00,BKN,OVC,0.00,0.0,WeatherDisplay:10.37,2013-06-22 01:45:00,
2013-06-21 21:50:00,67.3,57.6,30.17,WSW,257,0.0,1.2,71,0.00,BKN,OVC,0.00,0.0,WeatherDisplay:10.37,2013-06-22 01:50:00,
2013-06-21 21:55:00,66.7,57.0,30.17,WSW,257,0.0,0.0,71,0.00,BKN,OVC,0.00,0.0,WeatherDisplay:10.37,2013-06-22 01:55:00,
2013-06-21 22:00:00,66.3,57.4,30.18,WSW,257,0.0,0.0,73,0.00,BKN,OVC,0.00,0.0,WeatherDisplay:10.37,2013-06-22 02:00:00,
2013-06-21 22:05:00,65.9,57.4,30.17,WSW,257,0.0,0.0,74,0.00,BKN,OVC,0.00,0.0,WeatherDisplay:10.37,2013-06-22 02:05:00,
2013-06-21 22:10:00,65.5,57.4,30.17,WSW,257,0.0,0.0,75,0.00,BKN,OVC,0.00,0.0,WeatherDisplay:10.37,2013-06-22 02:10:00,
2013-06-21 22:15:00,65.2,57.4,30.17,WSW,257,0.0,1.2,76,0.00,BKN,OVC,0.00,0.0,WeatherDisplay:10.37,2013-06-22 02:15:00,
2013-06-21 22:20:00,65.0,57.2,30.17,WSW,257,0.0,0.0,76,0.00,BKN,OVC,0.00,0.0,WeatherDisplay:10.37,2013-06-22 02:20:00,
2013-06-21 22:25:00,64.7,57.3,30.17,WSW,257,0.0,0.0,77,0.00,SCT,OVC,0.00,0.0,WeatherDisplay:10.37,2013-06-22 02:25:00,
2013-06-21 22:30:00,64.4,57.0,30.17,WSW,257,0.0,1.2,77,0.00,SCT,OVC,0.00,0.0,WeatherDisplay:10.37,2013-06-22 02:30:00,
2013-06-21 22:35:00,64.2,57.2,30.17,WSW,257,0.0,1.2,78,0.00,SCT,OVC,0.00,0.0,WeatherDisplay:10.37,2013-06-22 02:35:00,
2013-06-21 22:40:00,64.0,57.0,30.17,WSW,257,0.1,1.2,78,0.00,SCT,OVC,0.00,0.0,WeatherDisplay:10.37,2013-06-22 02:40:00,
2013-06-21 22:45:00,63.8,56.8,30.17,WSW,257,0.9,2.3,78,0.00,SCT,OVC,0.00,0.0,WeatherDisplay:10.37,2013-06-22 02:45:00,
2013-06-21 22:50:00,63.7,56.7,30.17,WSW,257,0.0,1.2,78,0.00,SCT,OVC,0.00,0.0,WeatherDisplay:10.37,2013-06-22 02:50:00,
2013-06-21 22:55:00,63.7,56.7,30.17,WSW,257,0.2,1.2,78,0.00,SCT,OVC,0.00,0.0,WeatherDisplay:10.37,2013-06-22 02:55:00,
2013-06-21 23:00:00,63.8,57.2,30.17,WSW,257,0.0,1.2,79,0.00,SCT,OVC,0.00,0.0,WeatherDisplay:10.37,2013-06-22 03:00:00,
2013-06-21 23:05:00,63.8,57.2,30.17,WSW,257,0.0,0.0,79,0.00,SCT,OVC,0.00,0.0,WeatherDisplay:10.37,2013-06-22 03:05:00,
2013-06-21 23:10:00,63.7,57.1,30.17,WSW,257,0.0,1.2,79,0.00,SCT,OVC,0.00,0.0,WeatherDisplay:10.37,2013-06-22 03:10:00,
2013-06-21 23:15:00,63.6,57.0,30.17,WSW,257,0.0,1.2,79,0.00,SCT,OVC,0.00,0.0,WeatherDisplay:10.37,2013-06-22 03:15:00,
2013-06-21 23:20:00,63.6,57.0,30.17,WSW,257,0.0,0.0,79,0.00,SCT,OVC,0.00,0.0,WeatherDisplay:10.37,2013-06-22 03:20:00,
2013-06-21 23:25:00,63.5,56.9,30.16,WSW,257,0.0,0.0,79,0.00,SCT,OVC,0.00,0.0,WeatherDisplay:10.37,2013-06-22 03:25:00,
2013-06-21 23:30:00,63.4,56.8,30.17,WSW,257,0.0,0.0,79,0.00,SCT,OVC,0.00,0.0,WeatherDisplay:10.37,2013-06-22 03:30:00,
2013-06-21 23:35:00,63.3,56.7,30.17,WSW,257,0.0,0.0,79,0.00,SCT,OVC,0.00,0.0,WeatherDisplay:10.37,2013-06-22 03:35:00,
2013-06-21 23:40:00,63.2,56.6,30.17,WSW,257,0.0,0.0,79,0.00,SCT,OVC,0.00,0.0,WeatherDisplay:10.37,2013-06-22 03:40:00,
2013-06-21 23:45:00,63.1,56.5,30.17,WSW,257,0.0,0.0,79,0.00,SCT,OVC,0.00,0.0,WeatherDisplay:10.37,2013-06-22 03:45:00,
2013-06-21 23:50:00,63.0,56.4,30.17,WSW,257,0.0,0.0,79,0.00,SCT,OVC,0.00,0.0,WeatherDisplay:10.37,2013-06-22 03:50:00,
2013-06-21 23:55:00,62.9,56.3,30.17,WSW,257,0.0,0.0,79,0.00,SCT,OVC,0.00,0.0,WeatherDisplay:10.37,2013-06-22 03:55:00,